Time,TemperatureF,DewpointF,PressureIn,WindDirection,WindDirectionDegrees,WindSpeedMPH,WindSpeedGustMPH,Humidity,HourlyPrecipIn,Conditions,Clouds,dailyrainin,SoftwareType,DateUTC
2013-05-16 00:01:00,70.2,67.1,29.77,South,180,4.7,-999.0,90,-99.99,,,0.00,Acu-Link.com,2013-05-16 05:01:00,
2013-05-16 00:16:00,70.2,66.8,29.77,SSW,202,2.7,-999.0,89,-99.99,,,0.00,Acu-Link.com,2013-05-16 05:16:00,
2013-05-16 00:31:00,69.8,67.0,29.77,South,180,6.3,-999.0,91,-99.99,,,0.00,Acu-Link.com,2013-05-16 05:31:00,
2013-05-16 00:46:00,69.4,66.7,29.76,SW,225,4.7,-999.0,91,-99.99,,,0.00,Acu-Link.com,2013-05-16 05:46:00,
2013-05-16 01:02:00,68.9,66.5,29.75,SSW,202,2.7,-999.0,92,-99.99,,,0.00,Acu-Link.com,2013-05-16 06:02:00,
2013-05-16 01:17:00,68.0,66.2,29.75,WSW,247,1.7,-999.0,94,-99.99,,,0.00,Acu-Link.com,2013-05-16 06:17:00,
2013-05-16 01:32:00,67.1,65.9,29.75,WNW,292,1.1,-999.0,96,-99.99,,,0.00,Acu-Link.com,2013-05-16 06:32:00,
2013-05-16 01:48:00,66.9,65.7,29.75,West,270,1.7,-999.0,96,-99.99,,,0.00,Acu-Link.com,2013-05-16 06:48:00,
2013-05-16 02:03:00,66.7,65.8,29.75,West,270,2.7,-999.0,97,-99.99,,,0.00,Acu-Link.com,2013-05-16 07:03:00,
2013-05-16 02:18:00,66.6,65.7,29.76,SSW,202,0.0,-999.0,97,-99.99,,,0.00,Acu-Link.com,2013-05-16 07:18:00,
2013-05-16 02:33:00,66.6,65.7,29.77,SSW,202,3.7,-999.0,97,-99.99,,,0.00,Acu-Link.com,2013-05-16 07:33:00,
2013-05-16 02:49:00,66.2,65.3,29.77,SSE,157,0.0,-999.0,97,-99.99,,,0.00,Acu-Link.com,2013-05-16 07:49:00,
2013-05-16 03:04:00,66.2,65.3,29.77,South,180,1.7,-999.0,97,-99.99,,,0.00,Acu-Link.com,2013-05-16 08:04:00,
2013-05-16 03:19:00,65.8,64.9,29.77,SSE,157,0.0,-999.0,97,-99.99,,,0.00,Acu-Link.com,2013-05-16 08:19:00,
2013-05-16 03:34:00,65.1,64.8,29.77,East,90,2.2,-999.0,99,-99.99,,,0.00,Acu-Link.com,2013-05-16 08:34:00,
2013-05-16 03:50:00,64.2,63.9,29.77,South,180,0.0,-999.0,99,-99.99,,,0.00,Acu-Link.com,2013-05-16 08:50:00,
2013-05-16 04:05:00,63.5,63.2,29.77,West,270,0.0,-999.0,99,-99.99,,,0.00,Acu-Link.com,2013-05-16 09:05:00,
2013-05-16 04:20:00,62.8,62.5,29.78,West,270,0.0,-999.0,99,-99.99,,,0.00,Acu-Link.com,2013-05-16 09:20:00,
2013-05-16 04:35:00,61.9,61.6,29.78,West,270,0.0,-999.0,99,-99.99,,,0.00,Acu-Link.com,2013-05-16 09:35:00,
2013-05-16 04:50:00,62.2,61.9,29.78,East,90,0.0,-999.0,99,-99.99,,,0.00,Acu-Link.com,2013-05-16 09:50:00,
2013-05-16 05:06:00,61.5,61.2,29.78,West,270,0.0,-999.0,99,-99.99,,,0.00,Acu-Link.com,2013-05-16 10:06:00,
2013-05-16 05:21:00,62.2,61.9,29.77,WNW,292,1.1,-999.0,99,-99.99,,,0.00,Acu-Link.com,2013-05-16 10:21:00,
2013-05-16 05:36:00,60.6,60.3,29.78,South,180,0.0,-999.0,99,-99.99,,,0.00,Acu-Link.com,2013-05-16 10:36:00,
2013-05-16 05:51:00,61.3,61.0,29.78,NW,315,0.0,-999.0,99,-99.99,,,0.00,Acu-Link.com,2013-05-16 10:51:00,
2013-05-16 06:07:00,59.7,59.4,29.79,South,180,0.0,-999.0,99,-99.99,,,0.00,Acu-Link.com,2013-05-16 11:07:00,
2013-05-16 06:22:00,60.1,59.8,29.80,SSW,202,3.7,-999.0,99,-99.99,,,0.00,Acu-Link.com,2013-05-16 11:22:00,
2013-05-16 06:37:00,61.9,61.6,29.81,SSW,202,3.2,-999.0,99,-99.99,,,0.00,Acu-Link.com,2013-05-16 11:37:00,
2013-05-16 06:53:00,62.1,61.8,29.81,SSW,202,3.2,-999.0,99,-99.99,,,0.00,Acu-Link.com,2013-05-16 11:53:00,
2013-05-16 07:08:00,62.4,62.1,29.83,South,180,4.2,-999.0,99,-99.99,,,0.00,Acu-Link.com,2013-05-16 12:08:00,
2013-05-16 07:23:00,63.0,62.7,29.82,South,180,6.3,-999.0,99,-99.99,,,0.00,Acu-Link.com,2013-05-16 12:23:00,
2013-05-16 07:39:00,64.0,63.7,29.82,WSW,247,2.7,-999.0,99,-99.99,,,0.00,Acu-Link.com,2013-05-16 12:39:00,
2013-05-16 07:54:00,65.7,65.4,29.82,WSW,247,1.7,-999.0,99,-99.99,,,0.00,Acu-Link.com,2013-05-16 12:54:00,
2013-05-16 08:09:00,68.9,67.1,29.82,SW,225,0.0,-999.0,94,-99.99,,,0.00,Acu-Link.com,2013-05-16 13:09:00,
2013-05-16 08:25:00,71.4,68.6,29.81,SSE,157,3.2,-999.0,91,-99.99,,,0.00,Acu-Link.com,2013-05-16 13:25:00,
2013-05-16 08:40:00,72.1,68.7,29.81,SSE,157,2.7,-999.0,89,-99.99,,,0.00,Acu-Link.com,2013-05-16 13:40:00,
2013-05-16 08:55:00,72.3,67.2,29.81,SSW,202,3.7,-999.0,84,-99.99,,,0.00,Acu-Link.com,2013-05-16 13:55:00,
2013-05-16 09:10:00,75.6,67.1,29.82,SSE,157,3.7,-999.0,75,-99.99,,,0.00,Acu-Link.com,2013-05-16 14:10:00,
2013-05-16 09:25:00,77.2,67.1,29.82,ESE,112,7.3,-999.0,71,-99.99,,,0.00,Acu-Link.com,2013-05-16 14:25:00,
2013-05-16 09:40:00,77.0,66.0,29.82,ESE,112,4.2,-999.0,69,-99.99,,,0.00,Acu-Link.com,2013-05-16 14:40:00,
2013-05-16 09:56:00,78.1,67.1,29.82,SSE,157,4.7,-999.0,69,-99.99,,,0.00,Acu-Link.com,2013-05-16 14:56:00,
2013-05-16 10:11:00,79.7,66.9,29.81,East,90,5.3,-999.0,65,-99.99,,,0.00,Acu-Link.com,2013-05-16 15:11:00,
2013-05-16 10:26:00,77.4,63.8,29.81,South,180,3.7,-999.0,63,-99.99,,,0.00,Acu-Link.com,2013-05-16 15:26:00,
2013-05-16 10:42:00,79.5,66.2,29.81,ESE,112,6.3,-999.0,64,-99.99,,,0.00,Acu-Link.com,2013-05-16 15:42:00,
2013-05-16 10:57:00,78.3,65.5,29.80,ESE,112,8.3,-999.0,65,-99.99,,,0.00,Acu-Link.com,2013-05-16 15:57:00,
2013-05-16 11:12:00,79.5,65.8,29.80,SSE,157,5.8,-999.0,63,-99.99,,,0.00,Acu-Link.com,2013-05-16 16:12:00,
2013-05-16 11:27:00,79.5,65.8,29.79,South,180,4.2,-999.0,63,-99.99,,,0.00,Acu-Link.com,2013-05-16 16:27:00,
2013-05-16 11:42:00,81.1,66.4,29.79,ESE,112,8.3,-999.0,61,-99.99,,,0.00,Acu-Link.com,2013-05-16 16:42:00,
2013-05-16 11:57:00,78.4,64.7,29.78,ESE,112,4.7,-999.0,63,-99.99,,,0.00,Acu-Link.com,2013-05-16 16:57:00,
2013-05-16 12:12:00,80.2,65.5,29.78,SSE,157,9.9,-999.0,61,-99.99,,,0.00,Acu-Link.com,2013-05-16 17:12:00,
2013-05-16 12:28:00,80.8,65.6,29.77,ESE,112,10.9,-999.0,60,-99.99,,,0.00,Acu-Link.com,2013-05-16 17:28:00,
2013-05-16 12:43:00,80.6,64.4,29.77,ESE,112,7.3,-999.0,58,-99.99,,,0.00,Acu-Link.com,2013-05-16 17:43:00,
2013-05-16 12:58:00,81.5,64.8,29.77,South,180,5.8,-999.0,57,-99.99,,,0.00,Acu-Link.com,2013-05-16 17:58:00,
2013-05-16 13:13:00,83.3,64.9,29.76,South,180,10.9,-999.0,54,-99.99,,,0.00,Acu-Link.com,2013-05-16 18:13:00,
2013-05-16 13:28:00,83.5,65.1,29.76,SSE,157,14.0,-999.0,54,-99.99,,,0.00,Acu-Link.com,2013-05-16 18:28:00,
2013-05-16 13:43:00,82.9,65.0,29.75,SSE,157,9.9,-999.0,55,-99.99,,,0.00,Acu-Link.com,2013-05-16 18:43:00,
2013-05-16 13:58:00,82.9,64.0,29.75,SSE,157,11.9,-999.0,53,-99.99,,,0.00,Acu-Link.com,2013-05-16 18:58:00,
2013-05-16 14:13:00,84.0,64.5,29.75,ESE,112,13.5,-999.0,52,-99.99,,,0.00,Acu-Link.com,2013-05-16 19:13:00,
2013-05-16 14:29:00,84.0,63.3,29.75,SSW,202,12.5,-999.0,50,-99.99,,,0.00,Acu-Link.com,2013-05-16 19:29:00,
2013-05-16 14:44:00,82.6,63.2,29.75,South,180,7.3,-999.0,52,-99.99,,,0.00,Acu-Link.com,2013-05-16 19:44:00,
2013-05-16 14:59:00,81.5,62.7,29.74,South,180,11.4,-999.0,53,-99.99,,,0.00,Acu-Link.com,2013-05-16 19:59:00,
2013-05-16 15:14:00,83.7,64.2,29.74,SE,135,11.4,-999.0,52,-99.99,,,0.00,Acu-Link.com,2013-05-16 20:14:00,
2013-05-16 15:29:00,81.9,63.6,29.74,ESE,112,10.4,-999.0,54,-99.99,,,0.00,Acu-Link.com,2013-05-16 20:29:00,
2013-05-16 15:44:00,83.3,64.4,29.74,South,180,10.4,-999.0,53,-99.99,,,0.00,Acu-Link.com,2013-05-16 20:44:00,
2013-05-16 15:59:00,84.9,64.7,29.74,SSW,202,10.9,-999.0,51,-99.99,,,0.00,Acu-Link.com,2013-05-16 20:59:00,
2013-05-16 16:16:00,82.8,63.3,29.73,NE,45,2.7,-999.0,52,-99.99,,,0.00,Acu-Link.com,2013-05-16 21:16:00,
2013-05-16 16:32:00,86.0,63.4,29.73,SSW,202,5.3,-999.0,47,-99.99,,,0.00,Acu-Link.com,2013-05-16 21:32:00,
2013-05-16 16:47:00,83.3,62.1,29.72,South,180,11.4,-999.0,49,-99.99,,,0.00,Acu-Link.com,2013-05-16 21:47:00,
2013-05-16 17:02:00,83.7,61.9,29.72,South,180,9.4,-999.0,48,-99.99,,,0.00,Acu-Link.com,2013-05-16 22:02:00,
2013-05-16 17:17:00,83.7,62.5,29.72,South,180,14.0,-999.0,49,-99.99,,,0.00,Acu-Link.com,2013-05-16 22:17:00,
2013-05-16 17:32:00,81.9,62.0,29.72,South,180,10.4,-999.0,51,-99.99,,,0.00,Acu-Link.com,2013-05-16 22:32:00,
2013-05-16 17:47:00,83.3,62.1,29.71,WSW,247,8.3,-999.0,49,-99.99,,,0.00,Acu-Link.com,2013-05-16 22:47:00,
2013-05-16 18:02:00,80.4,61.7,29.71,South,180,7.3,-999.0,53,-99.99,,,0.00,Acu-Link.com,2013-05-16 23:02:00,
2013-05-16 18:18:00,83.1,62.5,29.71,SW,225,4.7,-999.0,50,-99.99,,,0.00,Acu-Link.com,2013-05-16 23:18:00,
2013-05-16 18:33:00,82.2,61.7,29.71,SSW,202,5.3,-999.0,50,-99.99,,,0.00,Acu-Link.com,2013-05-16 23:33:00,
2013-05-16 18:48:00,82.2,61.1,29.71,South,180,6.3,-999.0,49,-99.99,,,0.00,Acu-Link.com,2013-05-16 23:48:00,
2013-05-16 19:03:00,82.8,62.2,29.71,SSW,202,3.7,-999.0,50,-99.99,,,0.00,Acu-Link.com,2013-05-17 00:03:00,
2013-05-16 19:18:00,81.9,61.4,29.71,SW,225,2.7,-999.0,50,-99.99,,,0.00,Acu-Link.com,2013-05-17 00:18:00,
2013-05-16 19:33:00,79.9,61.2,29.72,SSW,202,7.8,-999.0,53,-99.99,,,0.00,Acu-Link.com,2013-05-17 00:33:00,
2013-05-16 19:49:00,79.0,60.9,29.72,South,180,6.8,-999.0,54,-99.99,,,0.00,Acu-Link.com,2013-05-17 00:49:00,
2013-05-16 20:04:00,77.9,60.4,29.73,SSW,202,5.8,-999.0,55,-99.99,,,0.00,Acu-Link.com,2013-05-17 01:04:00,
2013-05-16 20:19:00,76.3,60.4,29.73,South,180,4.2,-999.0,58,-99.99,,,0.00,Acu-Link.com,2013-05-17 01:19:00,
2013-05-16 20:35:00,75.0,60.6,29.73,South,180,3.7,-999.0,61,-99.99,,,0.00,Acu-Link.com,2013-05-17 01:35:00,
2013-05-16 20:50:00,73.8,60.4,29.74,South,180,3.2,-999.0,63,-99.99,,,0.00,Acu-Link.com,2013-05-17 01:50:00,
2013-05-16 21:05:00,73.0,60.1,29.75,South,180,4.7,-999.0,64,-99.99,,,0.00,Acu-Link.com,2013-05-17 02:05:00,
2013-05-16 21:20:00,72.7,59.8,29.76,South,180,4.7,-999.0,64,-99.99,,,0.00,Acu-Link.com,2013-05-17 02:20:00,
2013-05-16 21:35:00,72.5,60.5,29.76,South,180,3.2,-999.0,66,-99.99,,,0.00,Acu-Link.com,2013-05-17 02:35:00,
2013-05-16 22:01:00,70.7,60.0,29.77,SSW,202,2.7,-999.0,69,-99.99,,,0.00,Acu-Link.com,2013-05-17 03:01:00,
2013-05-16 22:17:00,70.7,60.4,29.79,SSE,157,5.3,-999.0,70,-99.99,,,0.00,Acu-Link.com,2013-05-17 03:17:00,
2013-05-16 22:32:00,69.8,60.4,29.78,SE,135,6.3,-999.0,72,-99.99,,,0.00,Acu-Link.com,2013-05-17 03:32:00,
2013-05-16 22:47:00,69.3,60.3,29.79,SSE,157,9.9,-999.0,73,-99.99,,,0.00,Acu-Link.com,2013-05-17 03:47:00,
2013-05-16 23:02:00,68.9,60.6,29.79,SSE,157,5.8,-999.0,75,-99.99,,,0.00,Acu-Link.com,2013-05-17 04:02:00,
2013-05-16 23:17:00,68.5,60.6,29.79,SSW,202,6.8,-999.0,76,-99.99,,,0.00,Acu-Link.com,2013-05-17 04:17:00,
2013-05-16 23:33:00,68.0,60.9,29.79,South,180,4.7,-999.0,78,-99.99,,,0.00,Acu-Link.com,2013-05-17 04:33:00,
2013-05-16 23:48:00,67.6,60.8,29.79,SSW,202,4.2,-999.0,79,-99.99,,,0.00,Acu-Link.com,2013-05-17 04:48:00,